STARLINK-33569 (62769 NORAD) Tracking and Keplerian Element Data

This shows tracking and keplerian element data for the satellite.

Feedback or suggestion? Click here.




ElementValue
Catalog62769
NameSTARLINK-33569
Epoch Orbit339
Epoch Day35.25001157
Epoch Year2025
RAAN18.6722
Inclination53.1598
Eccentricity0.0001255
Argument of Perigee75.7725
Mean Anonmoly202.9538
Mean Motion15.78590834
Decay Rate-0.01054143
L11 62769U 25015M 25035.25001157 -.01054143 00000+0 -65713-2 0 9992
L22 62769 53.1598 18.6722 0001255 75.7725 202.9538 15.78590834 3399



Live tracking and technical data element details for STARLINK-33569 (NORAD 62769). STARLINK-33569 can be tracked NOW for your location showing map with azimuth and elevation plus other details from your city location.







IsCatalogInMostPopularTable: catalog: 62769, numindb: 4
Update: records affected: 1



GetName: 62769 STARLINK-33569

Hit Count: updated at: Sun, 09 Feb 2025 15:24:09 GMT